Tracking 19164 objects as of 21-May-2018
HD Live streaming from Space Station
objects crossing your sky now

OPS 6393 (FLTSATCOM 3)

Track OPS 6393 (FLTSATCOM 3) now!
OPS 6393 (FLTSATCOM 3) is classified as:


NORAD ID: 11669
Int'l Code: 1980-004A
Perigee: 35,718.8 km
Apogee: 35,916.4 km
Inclination: 11.8 °
Period: 1,437.3 minutes
Semi major axis: 42188 km
RCS: 3.9811 m2 (large)
Launch date: January 18, 1980
Source: United States (US)
Launch site: AIR FORCE EASTERN TEST RANGE (AFETR)
aabbcc
Your satellite tracking list
Your tracking list is empty




NASA's NSSDC Master Catalog

Two Line Element Set (TLE):
1 11669U 80004A   18140.67555388 +.00000090 +00000-0 +00000-0 0  9995
2 11669 011.8317 329.9357 0023416 169.7645 196.6945 01.00186681140284
Source of the keplerian elements: AFSPC